Regional Weather Roundup
Issued by NWS

Home | Current Version | Previous Version | Graphics & Text | Print | Product List | Glossary On
Versions: 1 2 3 4 5 6 7 8 9 10 11 12 13 14 15 16 17 18 19 20 21 22 23 24 25 26 27 28 29 30 31 32 33 34 35 36 37 38 39 40 41 42 43 44 45 46 47 48 49 50
000
ASUS43 KMPX 230310
RWRMN
WEATHER ROUNDUP FOR MINNESOTA
NATIONAL WEATHER SERVICE TWIN CITIES/CHANHASSEN MN
900 PM CST THU FEB 22 2018


NOTE: "FAIR" INDICATES FEW OR NO CLOUDS BELOW 12,000 FEET WITH NO
SIGNIFICANT WEATHER AND/OR OBSTRUCTIONS TO VISIBILITY. N/A MEANS
CURRENT SKY AND/OR WEATHER CONDITIONS ARE NOT AVAILABLE.

MNZ060>063-068>070-230400-
   Twin Cities Metro

CITY           SKY/WX    TMP DP  RH WIND       PRES   REMARKS
TWIN CITIES    LGT SNOW  27  25  92 E10       30.25F FOG     WCI  17
ST PAUL        LGT SNOW  26  24  92 E6        30.27F FOG     WCI  19
CRYSTAL        LGT SNOW  26  22  84 VRB7      30.25F FOG     WCI  18
LAKEVILLE      CLOUDY    25  25 100 E8        30.24F WCI  16
EDEN PRAIRIE   LGT SNOW  26  23  88 E9        30.24S VSB 3/4 WCI  17
SOUTH ST PAUL  LGT SNOW  27  25  90 E5        30.26F WCI  22
LAKE ELMO      LGT SNOW  27  25  93 E8        30.27F WCI  18
$$
MNZ001>005-007-008-013>017-022>024-027-028-230400-
   Northwest Minnesota

CITY           SKY/WX    TMP DP  RH WIND       PRES   REMARKS
BEMIDJI        CLOUDY    21   8  58 SE6       30.27F WCI  13
HALLOCK        FAIR       5   1  85 S8        30.28S WCI  -8
ROSEAU         FAIR      10   5  79 CALM      30.27S
WARROAD        FAIR       9   3  78 CALM      30.27S
THIEF RVR FALL CLOUDY    17   9  70 S3        30.27F
CROOKSTON      CLOUDY    18  12  79 CALM      30.28F
FOSSTON        CLOUDY    21   9  58 SE6       30.25F WCI  14
DETROIT LAKES  LGT SNOW  21  19  93 SE6       30.26S WCI  14
MOORHEAD       LGT SNOW  21  18  86 CALM      30.27F
PARK RAPIDS    LGT SNOW  19  15  84 E6        30.26S VSB 1   WCI  11
MAHNOMEN       CLOUDY    22   9  55 SE6       30.24F WCI  15
$$
MNZ006-009>011-018-025>026-230400-
   North Central Minnesota

CITY           SKY/WX    TMP DP  RH WIND       PRES   REMARKS
BAUDETTE       FAIR      14   2  58 SE6       30.26F WCI   5
FLAG ISLAND    FAIR       9   3  78 SE6       30.26F WCI  -1
INTL FALLS     FAIR      20   4  50 S3        30.29F
WASKISH        FAIR      19   5  53 SE3       30.27F
BIG FORK       CLOUDY    25   9  50 SE5       30.28F WCI  19
LONGVILLE      LGT SNOW  19  18  93 SE3       30.29F
GRAND RAPIDS   FLURRIES  22  10  60 SE6       30.32F WCI  14
CRANE LAKE     FAIR      25   7  46 S5        30.32F WCI  19
ORR            MOCLDY    23   9  54 SE5       30.27F WCI  17
COOK             N/A     23  10  58 SE3       30.31F
WALKER         FLURRIES  19  15  82 CALM      30.27F
$$
MNZ012-019>021-037-230400-
   Northeast Minnesota

CITY           SKY/WX    TMP DP  RH WIND       PRES   REMARKS
DULUTH         LGT SNOW  21  14  74 SE10      30.32F VSB 1   WCI  10
ELY            CLOUDY    21   9  58 S3        30.32F
HIBBING        CLOUDY    21   9  59 SE5       30.31F WCI  15
EVELETH        CLOUDY    23   9  54 E3        30.32F
DULUTH HARBOR  LGT SNOW  25  21  86 E13       30.38F VSB 1   WCI  13
TWO HARBORS    MOCLDY    25  16  68 NE6       30.33F WCI  18
GRAND MARAIS     N/A     20  12  71 NE3       30.42F
G MARAIS ARPRT CLOUDY    14   9  79 CALM      30.34F
$$
MNZ029>031-032-039>041-046>048-054>057-064-230400-
   West Central Minnesota

CITY           SKY/WX    TMP DP  RH WIND       PRES   REMARKS
FERGUS FALLS   LGT SNOW  19  18  93 E9        30.24F WCI   9
WHEATON        LGT SNOW  21  19  93 E7        30.26S WCI  13
MORRIS         MIX PCPN  21  19  93 E13       30.22S WCI   9
ALEXANDRIA     LGT SNOW  20  18  92 E13       30.22F VSB 3/4 WCI   7
ELBOW LAKE     LGT SNOW  20  19  95 NE9       30.24F WCI  10
WADENA         LGT SNOW  19  18  93 NE6       30.25F VSB 1   WCI  11
GLENWOOD       LGT SNOW  19  18  93 E10       30.22F VSB 1   WCI   8
APPLETON       LGT SNOW  25  21  86 E12       30.22F WCI  14
BENSON         LGT SNOW  21  19  93 SE7       30.24S VSB 1   WCI  13
ORTONVILLE     LGT SNOW  21  19  93 E6        30.22F WCI  14
MADISON        LGT SNOW  27  23  86 E10       30.22F WCI  17
WILLMAR        CLOUDY    21  21 100 E10       30.25S VSB 1   WCI  10
$$
MNZ033>034-036-042>043-049>051-058-059-230400-
   Central Minnesota

CITY           SKY/WX    TMP DP  RH WIND       PRES   REMARKS
ST CLOUD       LGT SNOW  22  20  92 E7        30.27S VSB 3/4 WCI  13
SAUK CENTRE    LGT SNOW  20  18  91 E12       30.23F VSB 1   WCI   8
PAYNESVILLE    LGT SNOW  22  21  97 E7        30.24F VSB 3/4 WCI  13
AITKIN         LGT SNOW  19  18  93 E6        30.27F WCI  11
PINE RIVER     LGT SNOW  18  16  93 E3        30.30F
BRAINERD       LGT SNOW  21  16  81 E7        30.27F VSB 1   WCI  12
STAPLES        HVY SNOW  18  18 100 E3        30.26F VSB 1/4
LONG PRAIRIE   LGT SNOW  19  18  93 NE8       30.25F WCI   9
LITTLE FALLS   LGT SNOW  21  18  86 E5        30.27F WCI  15
LITCHFIELD     LGT SNOW  25  23  93 E9        30.25F VSB 1   WCI  15
BUFFALO        LGT SNOW  24  22  91 NE6       30.27S WCI  17
MAPLE LAKE     LGT SNOW  25  23  93 NE7       30.27R VSB 1   WCI  17
HUTCHINSON     LGT SNOW  25  23  94 NE7       30.24F VSB 3/4 WCI  17
$$
MNZ037-044-045-052-053-230400-
   East Central Minnesota

CITY           SKY/WX    TMP DP  RH WIND       PRES   REMARKS
PRINCETON      LGT SNOW  25  21  86 E3        30.27F VSB 1
CAMBRIDGE      LGT SNOW  27  21  80 E3        30.28F VSB 3/4
RUSH CITY      LGT SNOW  24  22  91 E5        30.29F WCI  18
MOOSE LAKE     LGT SNOW  21  18  86 NE5       30.30F WCI  15
HINCKLEY       LGT SNOW  27  23  86 E6        30.30F WCI  20
CLOQUET        LGT SNOW  19  16  86 E3        30.32F VSB 3/4
MCGREGOR       CLOUDY    23  19  86 E6        30.30F VSB 1/2 WCI  16
$$
MNZ071>073-080-081-089-090-097-098-230400-
   Southwest Minnesota

CITY           SKY/WX    TMP DP  RH WIND       PRES   REMARKS
MONTEVIDEO     LGT SNOW  23  21  93 SE15      30.21F WCI  10
GRANITE FALLS  LGT SNOW  25  23  92 E9        30.23S VSB 3/4 WCI  16
CANBY          LGT SNOW  24  23  96 E5        30.22S WCI  19
MARSHALL       LGT SNOW  25  21  86 E8        30.20S VSB 1   WCI  16
REDWOOD FALLS  LGT SNOW  24  23  96 E10       30.21F FOG     WCI  14
OLIVIA         LGT SNOW  27  23  86 E7        30.21F WCI  19
PIPESTONE      LGT SNOW  21  19  93 E5        30.14F VSB 3/4 WCI  15
WORTHINGTON    LGT SNOW  25  25 100 CALM      30.16F VSB 3/4
JACKSON        LGT SNOW  28  27  93 CALM      30.17R VSB 3/4
TRACY          LGT SNOW  25  24  98 E3        30.19R
SLAYTON        LGT SNOW  24  24  97 E5        30.16F WCI  18
$$
MNZ065>067-074>077-082>085-091>093-230400-
   South Central Minnesota

CITY           SKY/WX    TMP DP  RH WIND       PRES   REMARKS
MANKATO        LGT SNOW  26  24  92 E15       30.20F FOG     WCI  14
NEW ULM        LGT SNOW  25  25 100 E7        30.21F WCI  17
ST JAMES       LGT SNOW  27  27 100 E9        30.21S VSB 3/4 WCI  17
FAIRMONT       SNOW      28  27  93 SE6       30.18S VSB 1/2 WCI  22
GLENCOE        LGT SNOW  26  26 100 E6        30.23F VSB 1   WCI  19
FARIBAULT      LGT SNOW  27  25  93 E6G16     30.22F WCI  20
OWATONNA       MIX PCPN  27  25  93 E20       30.19F WCI  13
WASECA         LGT SNOW  28  27  93 E10       30.21F WCI  19
ALBERT LEA     MIX PCPN  27  27 100 SE13      30.17F WCI  16
$$
MNZ078>079-086>088-094>096-230400-
   Southeast Minnesota

CITY           SKY/WX    TMP DP  RH WIND       PRES   REMARKS
ROCHESTER      FRZ RAIN  25  25 100 E16G24    30.20F FOG     WCI  12
RED WING       LGT SNOW  27  21  80 E10       30.26F WCI  17
STANTON        LGT SNOW  28  25  89 E9        30.22F WCI  19
DODGE CENTER   MIX PCPN  27  25  93 E13       30.20F WCI  16
WINONA         MIX PCPN  30  28  93 SE9       30.27F WCI  22
AUSTIN         MIX PCPN  27  25  93 SE15      30.18F WCI  15
PRESTON        CLOUDY    26  25  94 E12       30.22F FOG     WCI  16
$$
ABBREVIATIONS USED IN REMARKS
   TC - TEMPERATURES IN CELSIUS
  WCI - WIND CHILL INDEX
   HX - HEAT INDEX
  VSB - VISIBILITY
$$



USA.gov is the U.S. government's official web portal to all federal, state and local government web resources and services.